Home   Weather   Porto Novo   Past weeks
Flag for Benin

Past Weather in Porto Novo, Benin — Yesterday and Last 2 Weeks

Now
84 °F

Passing clouds.


Feels Like: 96 °F
Forecast: 92 / 81 °F
Wind: 13 mph from Southwest

Location: Cotonou Airport

Current Time: Feb 22, 2019 at 6:03:57 am

Latest Report: Feb 22, 2019 at 5:00 am


Visibility: N/A

Pressure: 29.86 "Hg

Humidity: 84%

Dew Point: 79 °F

Location of Porto NovoLocation

Past Weather in Porto Novo — Graph

°F

Porto Novo Temperature Yesterday

Maximum temperature yesterday: 90 °F (at 12:00 pm)
Minimum temperature yesterday: 84 °F (at 12:00 am)
Average temperature yesterday: 86 °F

High & Low Weather Summary for the Past Weeks

 TemperatureHumidityPressure
High93 °F (Feb 10, 3:00 pm)100% (Feb 8, 9:14 am)29.98 "Hg (Feb 8, 9:14 am)
Low75 °F (Feb 19, 8:04 am)41% (Feb 10, 4:00 pm)29.71 "Hg (Feb 7, 4:00 pm)
Average84 °F83%29.83 "Hg
* Reported Feb 7 3:00 am — Feb 22 3:00 am, Porto Novo. Weather by CustomWeather, © 2019

Note: Actual official high and low records may vary slightly from our data, if they occured in-between our weather recording intervals... More about our weather records

Advertising

Porto Novo Weather History for the Previous 24 Hours

Scroll right to see more
 ConditionsComfort  
Time TempWeatherWind HumidityBarometerVisibility
3:00 am
Fri, Feb 22
84 °FPassing clouds.16 mph84%29.86 "HgN/A
2:00 am84 °FPassing clouds.15 mph89%29.92 "HgN/A
12:00 am84 °FPassing clouds.15 mph89%29.92 "HgN/A
11:00 pm
Thu, Feb 21
84 °FPassing clouds.16 mph89%29.92 "HgN/A
9:00 pm86 °FPassing clouds.13 mph84%29.86 "HgN/A
8:00 pm86 °FPassing clouds.12 mph84%29.86 "HgN/A
7:00 pm86 °FPassing clouds.13 mph79%29.83 "HgN/A
6:00 pm88 °FPassing clouds.14 mph75%29.80 "HgN/A
5:00 pm88 °FPassing clouds.14 mph75%29.80 "HgN/A
4:00 pm90 °FPassing clouds.15 mph71%29.80 "HgN/A
3:00 pm90 °FPassing clouds.15 mph75%29.80 "HgN/A
2:00 pm90 °FPassing clouds.13 mph75%29.83 "HgN/A
1:00 pm88 °FPassing clouds.13 mph79%29.86 "HgN/A
12:00 pm90 °FPassing clouds.12 mph71%29.89 "HgN/A
11:00 am88 °FScattered clouds.12 mph75%29.89 "HgN/A
10:00 am86 °FScattered clouds.7 mph84%29.92 "HgN/A
9:00 am84 °FScattered clouds.6 mph84%29.89 "Hg5 mi
8:00 am84 °FScattered clouds.8 mph84%29.86 "Hg5 mi
6:00 am84 °FPassing clouds.10 mph84%29.86 "Hg4 mi
Weather by CustomWeather, © 2019

See weather overview